This is the latest recevied weather packets stored in our database for station/object NC4M. If no packets are shown the sender has not sent any weather packets the latest 10 day(s).
| Time | Temp. | Humidity | Pressure | Rain* | Wind** | Luminosity | Snow |
|---|---|---|---|---|---|---|---|
| 1777901442 | 18.33° C | 60% | 1008.1 hPa | 0 mm | - | 84 W/m² | - |
| 1777901140 | 18.33° C | 60% | 1008.2 hPa | 0 mm | - | 86 W/m² | - |
| 1777900838 | 18.33° C | 60% | 1008.2 hPa | 0 mm | - | 90 W/m² | - |
| 1777900535 | 17.78° C | 63% | 1008.4 hPa | 0 mm | - | 92 W/m² | - |
| 1777900232 | 17.78° C | 64% | 1008.4 hPa | 0 mm | - | 93 W/m² | - |
| 1777899927 | 17.22° C | 64% | 1008.6 hPa | 0 mm | - | 83 W/m² | - |
| 1777899625 | 16.67° C | 64% | 1008.7 hPa | 0 mm | - | 75 W/m² | - |
| 1777899322 | 16.67° C | 65% | 1008.6 hPa | 0 mm | - | 59 W/m² | - |
| 1777899020 | 16.67° C | 65% | 1008.7 hPa | 0 mm | - | 56 W/m² | - |
| 1777898716 | 16.11° C | 65% | 1008.8 hPa | 0 mm | - | 58 W/m² | - |
| 1777898414 | 16.11° C | 64% | 1008.8 hPa | 0 mm | - | 54 W/m² | - |
| 1777898112 | 16.11° C | 66% | 1008.8 hPa | 0 mm | - | 44 W/m² | - |
| 1777897809 | 15.56° C | 68% | 1008.8 hPa | 0 mm | - | 52 W/m² | - |
| 1777897504 | 15.56° C | 68% | 1008.9 hPa | 0 mm | - | 52 W/m² | - |
| 1777897200 | 15.56° C | 70% | 1008.9 hPa | 0 mm | - | 46 W/m² | - |
| 1777896896 | 15° C | 69% | 1008.8 hPa | 0 mm | - | 41 W/m² | - |
| 1777896594 | 15° C | 68% | 1008.7 hPa | 0 mm | - | 41 W/m² | - |
| 1777896290 | 15° C | 68% | 1008.7 hPa | 0 mm | - | 35 W/m² | - |
| 1777895989 | 15° C | 68% | 1008.9 hPa | 0 mm | - | 29 W/m² | - |
| 1777895686 | 15° C | 68% | 1008.9 hPa | 0 mm | - | 25 W/m² | - |
| 1777895383 | 15° C | 68% | 1008.8 hPa | 0 mm | - | 22 W/m² | - |
| 1777895081 | 14.44° C | 67% | 1009 hPa | 0 mm | - | 19 W/m² | - |
| 1777894778 | 14.44° C | 67% | 1008.8 hPa | 0 mm | - | 18 W/m² | - |
| 1777894474 | 14.44° C | 69% | 1008.9 hPa | 0 mm | - | 14 W/m² | - |
| 1777894172 | 14.44° C | 69% | 1008.8 hPa | 0 mm | - | 11 W/m² | - |
* Rain latest hour (hover to see other rain measurements)
** Current wind speed in m/s (hover to see current wind gust speed)